owner,sensor,date,latitude,longitude,vertical_datum,direction_of_sea_water_velocity,sea_water_speed,upward_sea_water_velocity,qcFlag 
TABS,ioos:station:wmo:42049:1,2008-11-01T00:00:00Z,28.3507,-96.0058,2.0,289.8445019,64.80834514,-99999.0,'11111222,11111222,99999999' 
TABS,ioos:station:wmo:42049:1,2008-11-01T00:30:00Z,28.3507,-96.0058,2.0,290.981732,60.0730239,-99999.0,'11111222,11111222,99999999' 
TABS,ioos:station:wmo:42049:1,2008-11-01T01:00:00Z,28.3507,-96.0058,2.0,291.1908926,52.42477372,-99999.0,'11111222,11111222,99999999' 
TABS,ioos:station:wmo:42049:1,2008-11-01T01:30:00Z,28.3507,-96.0058,2.0,290.2301692,51.59257408,-99999.0,'11111222,11111222,99999999' 
TABS,ioos:station:wmo:42049:1,2008-11-01T02:00:00Z,28.3507,-96.0058,2.0,290.8925935,52.66240025,-99999.0,'11111222,11111222,99999999' 
TABS,ioos:station:wmo:42049:1,2008-11-01T02:30:00Z,28.3507,-96.0058,2.0,287.753614,56.08063926,-99999.0,'11111222,11111222,99999999' 
TABS,ioos:station:wmo:42049:1,2008-11-01T03:00:00Z,28.3507,-96.0058,2.0,287.5589177,55.82073092,-99999.0,'11111222,11111222,99999999' 
TABS,ioos:station:wmo:42049:1,2008-11-01T03:30:00Z,28.3507,-96.0058,2.0,286.3287377,55.48803925,-99999.0,'11111222,11111222,99999999' 
TABS,ioos:station:wmo:42049:1,2008-11-01T04:00:00Z,28.3507,-96.0058,2.0,287.0892361,54.65291575,-99999.0,'11111222,11111222,99999999' 
TABS,ioos:station:wmo:42049:1,2008-11-01T04:30:00Z,28.3507,-96.0058,2.0,286.8535673,54.18730202,-99999.0,'11111222,11111222,99999999' 
TABS,ioos:station:wmo:42049:1,2008-11-01T05:00:00Z,28.3507,-96.0058,2.0,284.7136953,53.98007225,-99999.0,'11111222,11111222,99999999' 
TABS,ioos:station:wmo:42049:1,2008-11-01T05:30:00Z,28.3507,-96.0058,2.0,282.841307,51.96971618,-99999.0,'11111222,11111222,99999999' 
TABS,ioos:station:wmo:42049:1,2008-11-01T06:00:00Z,28.3507,-96.0058,2.0,281.1232212,49.24502411,-99999.0,'11111222,11111222,99999999' 
TABS,ioos:station:wmo:42049:1,2008-11-01T06:30:00Z,28.3507,-96.0058,2.0,279.9561492,48.2972815,-99999.0,'11111222,11111222,99999999' 
TABS,ioos:station:wmo:42049:1,2008-11-01T07:00:00Z,28.3507,-96.0058,2.0,281.0151007,47.5764448,-99999.0,'11111222,11111222,99999999' 
TABS,ioos:station:wmo:42049:1,2008-11-01T07:30:00Z,28.3507,-96.0058,2.0,277.771616,42.67190293,-99999.0,'11111222,11111222,99999999' 
TABS,ioos:station:wmo:42049:1,2008-11-01T08:00:00Z,28.3507,-96.0058,2.0,277.4881899,40.74746741,-99999.0,'11111222,11111222,99999999' 
TABS,ioos:station:wmo:42049:1,2008-11-01T08:30:00Z,28.3507,-96.0058,2.0,275.6806166,39.40347827,-99999.0,'11111222,11111222,99999999' 
TABS,ioos:station:wmo:42049:1,2008-11-01T09:00:00Z,28.3507,-96.0058,2.0,271.5241228,37.9834306,-99999.0,'11111222,11111222,99999999' 
TABS,ioos:station:wmo:42049:1,2008-11-01T09:30:00Z,28.3507,-96.0058,2.0,271.2888601,34.68877052,-99999.0,'11111222,11111222,99999999' 
TABS,ioos:station:wmo:42049:1,2008-11-01T10:00:00Z,28.3507,-96.0058,2.0,268.0813032,33.45875072,-99999.0,'11111222,11111222,99999999' 
TABS,ioos:station:wmo:42049:1,2008-11-01T10:30:00Z,28.3507,-96.0058,2.0,265.9894695,34.60472222,-99999.0,'11111222,11111222,99999999' 
TABS,ioos:station:wmo:42049:1,2008-11-01T11:00:00Z,28.3507,-96.0058,2.0,262.8103118,34.27950116,-99999.0,'11111222,11111222,99999999' 
TABS,ioos:station:wmo:42049:1,2008-11-01T11:30:00Z,28.3507,-96.0058,2.0,258.723424,33.29268088,-99999.0,'11111222,11111222,99999999' 
TABS,ioos:station:wmo:42049:1,2008-11-01T12:00:00Z,28.3507,-96.0058,2.0,250.9830378,35.2011264,-99999.0,'11111222,11111222,99999999' 
TABS,ioos:station:wmo:42049:1,2008-11-01T12:30:00Z,28.3507,-96.0058,2.0,249.7205643,33.41095629,-99999.0,'11111222,11111222,99999999' 
TABS,ioos:station:wmo:42049:1,2008-11-01T13:00:00Z,28.3507,-96.0058,2.0,248.3632208,31.59619281,-99999.0,'11111222,11111222,99999999' 
TABS,ioos:station:wmo:42049:1,2008-11-01T13:30:00Z,28.3507,-96.0058,2.0,240.1305124,35.46037366,-99999.0,'11111222,11111222,99999999' 
TABS,ioos:station:wmo:42049:1,2008-11-01T14:00:00Z,28.3507,-96.0058,2.0,237.4716853,36.37640032,-99999.0,'11111222,11111222,99999999' 
TABS,ioos:station:wmo:42049:1,2008-11-01T14:30:00Z,28.3507,-96.0058,2.0,240.3445583,39.57333067,-99999.0,'11111222,11111222,99999999' 
TABS,ioos:station:wmo:42049:1,2008-11-01T15:00:00Z,28.3507,-96.0058,2.0,237.2218392,40.41503186,-99999.0,'11111222,11111222,99999999' 
TABS,ioos:station:wmo:42049:1,2008-11-01T15:30:00Z,28.3507,-96.0058,2.0,240.4420417,40.60422761,-99999.0,'11111222,11111222,99999999' 
TABS,ioos:station:wmo:42049:1,2008-11-01T16:00:00Z,28.3507,-96.0058,2.0,236.4125289,38.59332844,-99999.0,'11111222,11111222,99999999' 
TABS,ioos:station:wmo:42049:1,2008-11-01T16:30:00Z,28.3507,-96.0058,2.0,236.9008002,38.43722284,-99999.0,'11111222,11111222,99999999' 
TABS,ioos:station:wmo:42049:1,2008-11-01T17:00:00Z,28.3507,-96.0058,2.0,234.9888872,37.54376246,-99999.0,'11111222,11111222,99999999' 
TABS,ioos:station:wmo:42049:1,2008-11-01T17:30:00Z,28.3507,-96.0058,2.0,233.5989555,38.58929385,-99999.0,'11111222,11111222,99999999' 
TABS,ioos:station:wmo:42049:1,2008-11-01T18:00:00Z,28.3507,-96.0058,2.0,234.0234137,38.72671042,-99999.0,'11111222,11111222,99999999' 
TABS,ioos:station:wmo:42049:1,2008-11-01T18:30:00Z,28.3507,-96.0058,2.0,230.4684202,37.17209303,-99999.0,'11111222,11111222,99999999' 
TABS,ioos:station:wmo:42049:1,2008-11-01T19:00:00Z,28.3507,-96.0058,2.0,229.7560422,37.01014185,-99999.0,'11111222,11111222,99999999' 
TABS,ioos:station:wmo:42049:1,2008-11-01T19:30:00Z,28.3507,-96.0058,2.0,226.419562,34.81448549,-99999.0,'11111222,11111222,99999999' 
TABS,ioos:station:wmo:42049:1,2008-11-01T20:00:00Z,28.3507,-96.0058,2.0,226.1799348,31.23953425,-99999.0,'11111222,11111222,99999999' 
TABS,ioos:station:wmo:42049:1,2008-11-01T20:30:00Z,28.3507,-96.0058,2.0,222.090588,31.62721771,-99999.0,'11111222,11111222,99999999' 
TABS,ioos:station:wmo:42049:1,2008-11-01T21:00:00Z,28.3507,-96.0058,2.0,219.299262,31.7505433,-99999.0,'11111222,11111222,99999999' 
TABS,ioos:station:wmo:42049:1,2008-11-01T21:30:00Z,28.3507,-96.0058,2.0,214.1087045,30.72566517,-99999.0,'11111222,11111222,99999999' 
TABS,ioos:station:wmo:42049:1,2008-11-01T22:00:00Z,28.3507,-96.0058,2.0,213.1283614,32.55137017,-99999.0,'11111222,11111222,99999999' 
TABS,ioos:station:wmo:42049:1,2008-11-01T22:30:00Z,28.3507,-96.0058,2.0,209.8777978,30.41215875,-99999.0,'11111222,11111222,99999999' 
TABS,ioos:station:wmo:42049:1,2008-11-01T23:00:00Z,28.3507,-96.0058,2.0,204.3386721,28.89839096,-99999.0,'11111222,11111222,99999999' 
TABS,ioos:station:wmo:42049:1,2008-11-01T23:30:00Z,28.3507,-96.0058,2.0,203.7506953,28.60249639,-99999.0,'11111222,11111222,99999999' 
TABS,ioos:station:wmo:42049:1,2008-11-02T00:00:00Z,28.3507,-96.0058,2.0,199.3652372,24.72911038,-99999.0,'11111222,11111222,99999999' 
TABS,ioos:station:wmo:42049:1,2008-11-02T00:30:00Z,28.3507,-96.0058,2.0,191.768051,26.72167847,-99999.0,'11111222,11111222,99999999' 
TABS,ioos:station:wmo:42049:1,2008-11-02T01:00:00Z,28.3507,-96.0058,2.0,187.9716426,25.09248692,-99999.0,'11111222,11111222,99999999' 
TABS,ioos:station:wmo:42049:1,2008-11-02T01:30:00Z,28.3507,-96.0058,2.0,184.5568385,23.03281355,-99999.0,'11111222,11111222,99999999' 
TABS,ioos:station:wmo:42049:1,2008-11-02T02:00:00Z,28.3507,-96.0058,2.0,175.2294523,21.28372618,-99999.0,'11111222,11111222,99999999' 
TABS,ioos:station:wmo:42049:1,2008-11-02T02:30:00Z,28.3507,-96.0058,2.0,171.0669849,21.70323709,-99999.0,'11111222,11111222,99999999' 
TABS,ioos:station:wmo:42049:1,2008-11-02T03:00:00Z,28.3507,-96.0058,2.0,166.6653159,20.5952446,-99999.0,'11111222,11111222,99999999' 
TABS,ioos:station:wmo:42049:1,2008-11-02T03:30:00Z,28.3507,-96.0058,2.0,165.1497292,17.24602273,-99999.0,'11111222,11111222,99999999' 
TABS,ioos:station:wmo:42049:1,2008-11-02T04:00:00Z,28.3507,-96.0058,2.0,148.24534,14.04192651,-99999.0,'11111222,11111222,99999999' 
TABS,ioos:station:wmo:42049:1,2008-11-02T04:30:00Z,28.3507,-96.0058,2.0,140.9739179,16.37359154,-99999.0,'11111222,11111222,99999999' 
TABS,ioos:station:wmo:42049:1,2008-11-02T05:00:00Z,28.3507,-96.0058,2.0,132.4793366,19.29439815,-99999.0,'11111222,11111222,99999999' 
TABS,ioos:station:wmo:42049:1,2008-11-02T05:30:00Z,28.3507,-96.0058,2.0,131.4662592,14.79959797,-99999.0,'11111222,11111222,99999999' 
TABS,ioos:station:wmo:42049:1,2008-11-02T06:00:00Z,28.3507,-96.0058,2.0,130.1549874,14.90248972,-99999.0,'11111222,11111222,99999999' 
TABS,ioos:station:wmo:42049:1,2008-11-02T06:30:00Z,28.3507,-96.0058,2.0,112.9253471,12.11709536,-99999.0,'11111222,11111222,99999999' 
TABS,ioos:station:wmo:42049:1,2008-11-02T07:00:00Z,28.3507,-96.0058,2.0,118.2801185,15.09127563,-99999.0,'11111222,11111222,99999999' 
TABS,ioos:station:wmo:42049:1,2008-11-02T07:30:00Z,28.3507,-96.0058,2.0,110.7363826,15.98555911,-99999.0,'11111222,11111222,99999999' 
TABS,ioos:station:wmo:42049:1,2008-11-02T08:00:00Z,28.3507,-96.0058,2.0,101.5609675,14.76964793,-99999.0,'11111222,11111222,99999999' 
TABS,ioos:station:wmo:42049:1,2008-11-02T08:30:00Z,28.3507,-96.0058,2.0,92.16367776,12.44887545,-99999.0,'11111222,11111222,99999999' 
TABS,ioos:station:wmo:42049:1,2008-11-02T09:00:00Z,28.3507,-96.0058,2.0,94.65729789,13.42432494,-99999.0,'11111222,11111222,99999999' 
TABS,ioos:station:wmo:42049:1,2008-11-02T09:30:00Z,28.3507,-96.0058,2.0,88.45859824,13.75497728,-99999.0,'11111222,11111222,99999999' 
TABS,ioos:station:wmo:42049:1,2008-11-02T10:00:00Z,28.3507,-96.0058,2.0,110.098974,17.31444772,-99999.0,'11111222,11111222,99999999' 
TABS,ioos:station:wmo:42049:1,2008-11-02T10:30:00Z,28.3507,-96.0058,2.0,105.3142582,17.83323022,-99999.0,'11111222,11111222,99999999' 
TABS,ioos:station:wmo:42049:1,2008-11-02T11:00:00Z,28.3507,-96.0058,2.0,93.15508592,17.98726494,-99999.0,'11111222,11111222,99999999' 
TABS,ioos:station:wmo:42049:1,2008-11-02T11:30:00Z,28.3507,-96.0058,2.0,84.68317597,17.37475467,-99999.0,'11111222,11111222,99999999' 
TABS,ioos:station:wmo:42049:1,2008-11-02T12:00:00Z,28.3507,-96.0058,2.0,82.57776395,18.88826355,-99999.0,'11111222,11111222,99999999' 
TABS,ioos:station:wmo:42049:1,2008-11-02T12:30:00Z,28.3507,-96.0058,2.0,88.01400132,19.62178636,-99999.0,'11111222,11111222,99999999' 
TABS,ioos:station:wmo:42049:1,2008-11-02T13:00:00Z,28.3507,-96.0058,2.0,90.47076078,20.69069839,-99999.0,'11111222,11111222,99999999' 
TABS,ioos:station:wmo:42049:1,2008-11-02T13:30:00Z,28.3507,-96.0058,2.0,94.49942964,19.63049923,-99999.0,'11111222,11111222,99999999' 
TABS,ioos:station:wmo:42049:1,2008-11-02T14:00:00Z,28.3507,-96.0058,2.0,91.9739437,20.03188708,-99999.0,'11111222,11111222,99999999' 
TABS,ioos:station:wmo:42049:1,2008-11-02T14:30:00Z,28.3507,-96.0058,2.0,95.3419819,19.33397269,-99999.0,'11111222,11111222,99999999' 
TABS,ioos:station:wmo:42049:1,2008-11-02T15:00:00Z,28.3507,-96.0058,2.0,106.0418232,17.94893033,-99999.0,'11111222,11111222,99999999' 
TABS,ioos:station:wmo:42049:1,2008-11-02T15:30:00Z,28.3507,-96.0058,2.0,133.6512554,12.61828039,-99999.0,'11111222,11111222,99999999' 
TABS,ioos:station:wmo:42049:1,2008-11-02T16:00:00Z,28.3507,-96.0058,2.0,117.4641742,13.96372801,-99999.0,'11111222,11111222,99999999' 
TABS,ioos:station:wmo:42049:1,2008-11-02T16:30:00Z,28.3507,-96.0058,2.0,139.966759,12.25066529,-99999.0,'11111222,11111222,99999999' 
TABS,ioos:station:wmo:42049:1,2008-11-02T17:00:00Z,28.3507,-96.0058,2.0,158.4526582,11.29967256,-99999.0,'11111222,11111222,99999999' 
TABS,ioos:station:wmo:42049:1,2008-11-02T17:30:00Z,28.3507,-96.0058,2.0,167.5288563,10.7434864,-99999.0,'11111222,11111222,99999999' 
TABS,ioos:station:wmo:42049:1,2008-11-02T18:00:00Z,28.3507,-96.0058,2.0,198.5431583,13.36380934,-99999.0,'11111222,11111222,99999999' 
TABS,ioos:station:wmo:42049:1,2008-11-02T18:30:00Z,28.3507,-96.0058,2.0,209.5398704,12.14927981,-99999.0,'11111222,11111222,99999999' 
TABS,ioos:station:wmo:42049:1,2008-11-02T19:00:00Z,28.3507,-96.0058,2.0,216.2622494,14.15079503,-99999.0,'11111222,11111222,99999999' 
TABS,ioos:station:wmo:42049:1,2008-11-02T19:30:00Z,28.3507,-96.0058,2.0,247.237955,12.74234672,-99999.0,'11111222,11111222,99999999' 
TABS,ioos:station:wmo:42049:1,2008-11-02T20:00:00Z,28.3507,-96.0058,2.0,244.1230723,13.77070078,-99999.0,'11111222,11111222,99999999' 
TABS,ioos:station:wmo:42049:1,2008-11-02T20:30:00Z,28.3507,-96.0058,2.0,248.3687428,13.72666019,-99999.0,'11111222,11111222,99999999' 
TABS,ioos:station:wmo:42049:1,2008-11-02T21:00:00Z,28.3507,-96.0058,2.0,263.2754191,14.00634499,-99999.0,'11111222,11111222,99999999' 
TABS,ioos:station:wmo:42049:1,2008-11-02T21:30:00Z,28.3507,-96.0058,2.0,260.613738,13.55142059,-99999.0,'11111222,11111222,99999999' 
TABS,ioos:station:wmo:42049:1,2008-11-02T22:00:00Z,28.3507,-96.0058,2.0,273.2243475,13.691669,-99999.0,'11111222,11111222,99999999' 
TABS,ioos:station:wmo:42049:1,2008-11-02T22:30:00Z,28.3507,-96.0058,2.0,277.2754089,16.10968653,-99999.0,'11111222,11111222,99999999' 
TABS,ioos:station:wmo:42049:1,2008-11-02T23:00:00Z,28.3507,-96.0058,2.0,275.4886981,13.59231033,-99999.0,'11111222,11111222,99999999' 
TABS,ioos:station:wmo:42049:1,2008-11-02T23:30:00Z,28.3507,-96.0058,2.0,277.7163559,13.10868796,-99999.0,'11111222,11111222,99999999' 
TABS,ioos:station:wmo:42049:1,2008-11-03T00:00:00Z,28.3507,-96.0058,2.0,281.4804875,13.86743307,-99999.0,'11111222,11111222,99999999' 
TABS,ioos:station:wmo:42049:1,2008-11-03T00:30:00Z,28.3507,-96.0058,2.0,276.0473235,11.86602292,-99999.0,'11111222,11111222,99999999' 
TABS,ioos:station:wmo:42049:1,2008-11-03T01:00:00Z,28.3507,-96.0058,2.0,277.654168,10.88699224,-99999.0,'11111222,11111222,99999999' 
TABS,ioos:station:wmo:42049:1,2008-11-03T01:30:00Z,28.3507,-96.0058,2.0,277.347415,10.24410562,-99999.0,'11111222,11111222,99999999' 
TABS,ioos:station:wmo:42049:1,2008-11-03T02:00:00Z,28.3507,-96.0058,2.0,279.0387012,10.88515503,-99999.0,'11111222,11111222,99999999' 
TABS,ioos:station:wmo:42049:1,2008-11-03T02:30:00Z,28.3507,-96.0058,2.0,299.0776844,14.69167111,-99999.0,'11111222,11111222,99999999' 
TABS,ioos:station:wmo:42049:1,2008-11-03T03:00:00Z,28.3507,-96.0058,2.0,313.0894475,15.69235483,-99999.0,'11111222,11111222,99999999' 
TABS,ioos:station:wmo:42049:1,2008-11-03T03:30:00Z,28.3507,-96.0058,2.0,320.7059668,16.35864298,-99999.0,'11111222,11111222,99999999' 
TABS,ioos:station:wmo:42049:1,2008-11-03T04:00:00Z,28.3507,-96.0058,2.0,321.3102574,14.797466,-99999.0,'11111222,11111222,99999999' 
TABS,ioos:station:wmo:42049:1,2008-11-03T04:30:00Z,28.3507,-96.0058,2.0,322.0964365,17.40083331,-99999.0,'11111222,11111222,99999999' 
TABS,ioos:station:wmo:42049:1,2008-11-03T05:00:00Z,28.3507,-96.0058,2.0,324.6637392,21.52570789,-99999.0,'11111222,11111222,99999999' 
TABS,ioos:station:wmo:42049:1,2008-11-03T05:30:00Z,28.3507,-96.0058,2.0,334.2534734,18.1631963,-99999.0,'11111222,11111222,99999999' 
TABS,ioos:station:wmo:42049:1,2008-11-03T06:00:00Z,28.3507,-96.0058,2.0,342.6341294,16.95275789,-99999.0,'11111222,11111222,99999999' 
TABS,ioos:station:wmo:42049:1,2008-11-03T06:30:00Z,28.3507,-96.0058,2.0,332.5588461,17.25104635,-99999.0,'11111222,11111222,99999999' 
TABS,ioos:station:wmo:42049:1,2008-11-03T07:00:00Z,28.3507,-96.0058,2.0,338.9146213,10.25675387,-99999.0,'11111222,11111222,99999999' 
TABS,ioos:station:wmo:42049:1,2008-11-03T07:30:00Z,28.3507,-96.0058,2.0,339.4267575,11.5250423,-99999.0,'11111222,11111222,99999999' 
TABS,ioos:station:wmo:42049:1,2008-11-03T08:00:00Z,28.3507,-96.0058,2.0,322.2135681,5.124656086,-99999.0,'11133222,11111222,99999999' 
TABS,ioos:station:wmo:42049:1,2008-11-03T08:30:00Z,28.3507,-96.0058,2.0,306.9132471,2.664000751,-99999.0,'11133222,11111222,99999999' 
TABS,ioos:station:wmo:42049:1,2008-11-03T09:00:00Z,28.3507,-96.0058,2.0,306.3575333,1.788071587,-99999.0,'11133222,11111222,99999999' 
TABS,ioos:station:wmo:42049:1,2008-11-03T09:30:00Z,28.3507,-96.0058,2.0,260.0384903,2.83270189,-99999.0,'11133222,11111222,99999999' 
TABS,ioos:station:wmo:42049:1,2008-11-03T10:00:00Z,28.3507,-96.0058,2.0,195.3760048,2.074246851,-99999.0,'11133222,11111222,99999999' 
TABS,ioos:station:wmo:42049:1,2008-11-03T10:30:00Z,28.3507,-96.0058,2.0,205.4630751,1.860752536,-99999.0,'11133222,11111222,99999999' 
TABS,ioos:station:wmo:42049:1,2008-11-03T11:00:00Z,28.3507,-96.0058,2.0,198.890317,3.181351914,-99999.0,'11133222,11111222,99999999' 
TABS,ioos:station:wmo:42049:1,2008-11-03T11:30:00Z,28.3507,-96.0058,2.0,214.3985542,4.035752718,-99999.0,'11133222,11111222,99999999' 
TABS,ioos:station:wmo:42049:1,2008-11-03T12:00:00Z,28.3507,-96.0058,2.0,213.7460056,14.1309943,-99999.0,'11111222,11111222,99999999' 
TABS,ioos:station:wmo:42049:1,2008-11-03T12:30:00Z,28.3507,-96.0058,2.0,268.6308285,22.60645041,-99999.0,'11111222,11111222,99999999' 
TABS,ioos:station:wmo:42049:1,2008-11-03T13:00:00Z,28.3507,-96.0058,2.0,269.2229391,47.95440543,-99999.0,'11111222,11111222,99999999' 
TABS,ioos:station:wmo:42049:1,2008-11-03T13:30:00Z,28.3507,-96.0058,2.0,265.4893161,44.50782965,-99999.0,'11111222,11111222,99999999' 
TABS,ioos:station:wmo:42049:1,2008-11-03T14:00:00Z,28.3507,-96.0058,2.0,264.9912827,43.75706229,-99999.0,'11111222,11111222,99999999' 
TABS,ioos:station:wmo:42049:1,2008-11-03T14:30:00Z,28.3507,-96.0058,2.0,258.1458306,44.8361294,-99999.0,'11111222,11111222,99999999' 
TABS,ioos:station:wmo:42049:1,2008-11-03T15:00:00Z,28.3507,-96.0058,2.0,258.014193,43.91737697,-99999.0,'11111222,11111222,99999999' 
TABS,ioos:station:wmo:42049:1,2008-11-03T15:30:00Z,28.3507,-96.0058,2.0,255.4143102,42.01395006,-99999.0,'11111222,11111222,99999999' 
TABS,ioos:station:wmo:42049:1,2008-11-03T16:00:00Z,28.3507,-96.0058,2.0,253.0139539,44.26074785,-99999.0,'11111222,11111222,99999999' 
TABS,ioos:station:wmo:42049:1,2008-11-03T16:30:00Z,28.3507,-96.0058,2.0,253.7193843,43.48360266,-99999.0,'11111222,11111222,99999999' 
TABS,ioos:station:wmo:42049:1,2008-11-03T17:00:00Z,28.3507,-96.0058,2.0,250.8675548,42.10568133,-99999.0,'11111222,11111222,99999999' 
TABS,ioos:station:wmo:42049:1,2008-11-03T17:30:00Z,28.3507,-96.0058,2.0,251.421143,40.39506158,-99999.0,'11111222,11111222,99999999' 
TABS,ioos:station:wmo:42049:1,2008-11-03T18:00:00Z,28.3507,-96.0058,2.0,249.0648405,42.84852973,-99999.0,'11111222,11111222,99999999' 
TABS,ioos:station:wmo:42049:1,2008-11-03T18:30:00Z,28.3507,-96.0058,2.0,248.6051994,42.87442128,-99999.0,'11111222,11111222,99999999' 
TABS,ioos:station:wmo:42049:1,2008-11-03T19:00:00Z,28.3507,-96.0058,2.0,244.5813925,44.24275873,-99999.0,'11111222,11111222,99999999' 
TABS,ioos:station:wmo:42049:1,2008-11-03T19:30:00Z,28.3507,-96.0058,2.0,246.3066239,43.82384054,-99999.0,'11111222,11111222,99999999' 
TABS,ioos:station:wmo:42049:1,2008-11-03T20:00:00Z,28.3507,-96.0058,2.0,245.7601922,42.4307966,-99999.0,'11111222,11111222,99999999' 
TABS,ioos:station:wmo:42049:1,2008-11-03T20:30:00Z,28.3507,-96.0058,2.0,244.4894898,44.21008482,-99999.0,'11111222,11111222,99999999' 
TABS,ioos:station:wmo:42049:1,2008-11-03T21:00:00Z,28.3507,-96.0058,2.0,243.1988068,43.46952956,-99999.0,'11111222,11111222,99999999' 
TABS,ioos:station:wmo:42049:1,2008-11-03T21:30:00Z,28.3507,-96.0058,2.0,241.4952978,39.64583206,-99999.0,'11111222,11111222,99999999' 
TABS,ioos:station:wmo:42049:1,2008-11-03T22:00:00Z,28.3507,-96.0058,2.0,247.0417885,34.68752658,-99999.0,'11111222,11111222,99999999' 
TABS,ioos:station:wmo:42049:1,2008-11-03T22:30:00Z,28.3507,-96.0058,2.0,261.8307488,29.27705586,-99999.0,'11111222,11111222,99999999' 
TABS,ioos:station:wmo:42049:1,2008-11-03T23:00:00Z,28.3507,-96.0058,2.0,271.0263794,27.92447672,-99999.0,'11111222,11111222,99999999' 
TABS,ioos:station:wmo:42049:1,2008-11-03T23:30:00Z,28.3507,-96.0058,2.0,280.8895085,30.17328123,-99999.0,'11111222,11111222,99999999' 
TABS,ioos:station:wmo:42049:1,2008-11-04T00:00:00Z,28.3507,-96.0058,2.0,286.337369,30.14722707,-99999.0,'11111222,11111222,99999999' 
TABS,ioos:station:wmo:42049:1,2008-11-04T00:30:00Z,28.3507,-96.0058,2.0,292.8034645,29.10476421,-99999.0,'11111222,11111222,99999999' 
TABS,ioos:station:wmo:42049:1,2008-11-04T01:00:00Z,28.3507,-96.0058,2.0,292.8987816,31.32883177,-99999.0,'11111222,11111222,99999999' 
TABS,ioos:station:wmo:42049:1,2008-11-04T01:30:00Z,28.3507,-96.0058,2.0,301.4110518,28.80063367,-99999.0,'11111222,11111222,99999999' 
TABS,ioos:station:wmo:42049:1,2008-11-04T02:00:00Z,28.3507,-96.0058,2.0,306.2541739,29.76172038,-99999.0,'11111222,11111222,99999999' 
TABS,ioos:station:wmo:42049:1,2008-11-04T02:30:00Z,28.3507,-96.0058,2.0,302.2286958,25.87686418,-99999.0,'11111222,11111222,99999999' 
TABS,ioos:station:wmo:42049:1,2008-11-04T03:00:00Z,28.3507,-96.0058,2.0,305.0898065,27.93748736,-99999.0,'11111222,11111222,99999999' 
TABS,ioos:station:wmo:42049:1,2008-11-04T03:30:00Z,28.3507,-96.0058,2.0,308.1444041,24.46404913,-99999.0,'11111222,11111222,99999999' 
TABS,ioos:station:wmo:42049:1,2008-11-04T04:00:00Z,28.3507,-96.0058,2.0,311.3291017,22.63851806,-99999.0,'11111222,11111222,99999999' 
TABS,ioos:station:wmo:42049:1,2008-11-04T04:30:00Z,28.3507,-96.0058,2.0,310.7821046,18.93812293,-99999.0,'11111222,11111222,99999999' 
TABS,ioos:station:wmo:42049:1,2008-11-04T05:00:00Z,28.3507,-96.0058,2.0,314.1790086,18.25230122,-99999.0,'11111222,11111222,99999999' 
TABS,ioos:station:wmo:42049:1,2008-11-04T05:30:00Z,28.3507,-96.0058,2.0,312.3225153,15.89190045,-99999.0,'11111222,11111222,99999999' 
TABS,ioos:station:wmo:42049:1,2008-11-04T06:00:00Z,28.3507,-96.0058,2.0,314.1260858,13.90333773,-99999.0,'11111222,11111222,99999999' 
TABS,ioos:station:wmo:42049:1,2008-11-04T06:30:00Z,28.3507,-96.0058,2.0,318.3667685,12.52325836,-99999.0,'11111222,11111222,99999999' 
TABS,ioos:station:wmo:42049:1,2008-11-04T07:00:00Z,28.3507,-96.0058,2.0,312.5228902,11.61447803,-99999.0,'11111222,11111222,99999999' 
TABS,ioos:station:wmo:42049:1,2008-11-04T07:30:00Z,28.3507,-96.0058,2.0,320.54562,10.24442287,-99999.0,'11111222,11111222,99999999' 
TABS,ioos:station:wmo:42049:1,2008-11-04T08:00:00Z,28.3507,-96.0058,2.0,327.4568525,10.94920088,-99999.0,'11111222,11111222,99999999' 
TABS,ioos:station:wmo:42049:1,2008-11-04T08:30:00Z,28.3507,-96.0058,2.0,325.1688086,11.69540081,-99999.0,'11111222,11111222,99999999' 
TABS,ioos:station:wmo:42049:1,2008-11-04T09:00:00Z,28.3507,-96.0058,2.0,308.7236031,7.049687936,-99999.0,'11133222,11111222,99999999' 
TABS,ioos:station:wmo:42049:1,2008-11-04T09:30:00Z,28.3507,-96.0058,2.0,279.254443,4.974746225,-99999.0,'11133222,11111222,99999999' 
TABS,ioos:station:wmo:42049:1,2008-11-04T10:00:00Z,28.3507,-96.0058,2.0,244.721916,7.166170525,-99999.0,'11133222,11111222,99999999' 
TABS,ioos:station:wmo:42049:1,2008-11-04T10:30:00Z,28.3507,-96.0058,2.0,244.3478569,11.50379503,-99999.0,'11111222,11111222,99999999' 
TABS,ioos:station:wmo:42049:1,2008-11-04T11:00:00Z,28.3507,-96.0058,2.0,254.6800465,11.69557609,-99999.0,'11111222,11111222,99999999' 
TABS,ioos:station:wmo:42049:1,2008-11-04T11:30:00Z,28.3507,-96.0058,2.0,248.9023582,12.39052864,-99999.0,'11111222,11111222,99999999' 
TABS,ioos:station:wmo:42049:1,2008-11-04T12:00:00Z,28.3507,-96.0058,2.0,234.9502877,15.54984887,-99999.0,'11111222,11111222,99999999' 
TABS,ioos:station:wmo:42049:1,2008-11-04T12:30:00Z,28.3507,-96.0058,2.0,238.097928,15.81943425,-99999.0,'11111222,11111222,99999999' 
TABS,ioos:station:wmo:42049:1,2008-11-04T13:00:00Z,28.3507,-96.0058,2.0,246.1481424,16.24759982,-99999.0,'11111222,11111222,99999999' 
TABS,ioos:station:wmo:42049:1,2008-11-04T13:30:00Z,28.3507,-96.0058,2.0,251.742794,30.51612688,-99999.0,'11111222,11111222,99999999' 
TABS,ioos:station:wmo:42049:1,2008-11-04T14:00:00Z,28.3507,-96.0058,2.0,251.8098896,33.98847157,-99999.0,'11111222,11111222,99999999' 
TABS,ioos:station:wmo:42049:1,2008-11-04T14:30:00Z,28.3507,-96.0058,2.0,255.0783283,36.42834611,-99999.0,'11111222,11111222,99999999' 
TABS,ioos:station:wmo:42049:1,2008-11-04T15:00:00Z,28.3507,-96.0058,2.0,255.6225805,35.88378046,-99999.0,'11111222,11111222,99999999' 
TABS,ioos:station:wmo:42049:1,2008-11-04T15:30:00Z,28.3507,-96.0058,2.0,251.5107919,36.98917815,-99999.0,'11111222,11111222,99999999' 
TABS,ioos:station:wmo:42049:1,2008-11-04T16:00:00Z,28.3507,-96.0058,2.0,256.803751,38.19861908,-99999.0,'11111222,11111222,99999999' 